Location: Newark
(36.8464°N, 25.6817°E)
Time: 05:14:23
(UTC+00:00)

Envisat - Pass Details

Date: 19 October 2019
Orbit: 764 x 766 km, 98.1° (Epoch: 12 November)

Event Time Altitude Azimuth Distance (km) Brightness Sun altitude
Rises 16:23:30 0° 166° (SSE) 3,217 6.1 -10.2°
Reaches altitude 10° 16:25:48 10° 166° (SSE) 2,295 5.4 -10.7°
Maximum altitude 16:30:52 90° 110° (ESE) 771 3.0 -11.7°
Drops below altitude 10° 16:35:58 10° 348° (NNW) 2,309 5.6 -12.7°
Sets 16:38:17 0° 348° (NNW) 3,239 6.4 -13.2°
